Weather History for Pampa / Mesa Vista, TX

Change the Weather History Date:

Friday, February 22, 2013

  Actual Average (KBGD) Record (KBGD)
Temperature  
Mean Temperature 20 °F 43 °F  
Max Temperature 33 °F 56 °F 82 °F (1996)
Min Temperature 8 °F 31 °F 13 °F (1966)
Degree Days  
Heating Degree Days 44 22  
Month to date heating degree days 517  
Since 1 July heating degree days 2869  
Cooling Degree Days 0 0  
Month to date cooling degree days 0  
Year to date cooling degree days 0  
Moisture  
Dew Point 18 °F    
Average Humidity 80    
Maximum Humidity 93    
Minimum Humidity 64    
Precipitation  
Precipitation 0.00 in 0.02 in 0.73 in (1975)
Month to date precipitation 0.51  
Year to date precipitation 1.10  
Snow  
Snow 0.00 in - 9.00 in (1975)
Month to date snowfall  
Since 1 July snowfall  
Snow Depth -    
Sea Level Pressure  
Sea Level Pressure 30.02 in    
Wind  
Wind Speed 4 mph (West)    
Max Wind Speed 13 mph    
Max Gust Speed -    
Visibility 10 miles    
Events      
T = Trace of Precipitation, MM = Missing Value Source: NWS Daily Summary

Daily Weather History Graph

Daily Weather History Graph

Search for Another Location

Airport:

Trip Planner

Search our weather history database for the weather conditions in past years. The results will help you decide how hot, cold, wet, or windy it might be!

Date:

Astronomy

Feb. 22, 2013 Rise Set
Actual Time 7:22 AM CST 6:32 PM CST
Civil Twilight 6:56 AM CST 6:58 PM CST
Nautical Twilight 6:27 AM CST 7:28 PM CST
Astronomical Twilight 5:57 AM CST 7:58 PM CST
Moon 3:49 PM CST 5:05 AM CST
Length of Visible Light 12h 01m
Length of Day
11h 10m
Waxing Gibbous, 90% of the Moon is Illuminated
Feb 22
Waxing Gibbous
Feb 25
Full
Mar 4
Last Quarter
Mar 11
New
Mar 19
First Quarter

Hourly Weather History & Observations

Time (CST) Temp. Windchill Dew Point Humidity Pressure Visibility Wind Dir Wind Speed Gust Speed Precip Events Conditions
12:15 AM 21.2 °F 13.6 °F 15.8 °F 80% 29.97 in 10.0 mi NW 5.8 mph - N/A   Overcast
12:35 AM 21.2 °F 12.6 °F 14.0 °F 74% 29.97 in 10.0 mi NW 6.9 mph - N/A   Scattered Clouds
12:55 AM 21.2 °F 11.7 °F 15.8 °F 80% 29.97 in 10.0 mi NNW 8.1 mph - N/A   Clear
1:15 AM 21.2 °F 8.9 °F 15.8 °F 80% 29.97 in 10.0 mi NNW 12.7 mph - N/A   Clear
1:35 AM 19.4 °F 8.6 °F 14.0 °F 80% 29.98 in 10.0 mi North 9.2 mph - N/A   Clear
1:55 AM 19.4 °F - 14.0 °F 80% 29.99 in 10.0 mi Calm Calm - N/A   Clear
2:15 AM 19.4 °F - 14.0 °F 80% 29.99 in 10.0 mi Calm Calm - N/A   Clear
2:35 AM 15.8 °F - 10.4 °F 79% 30.00 in 10.0 mi Calm Calm - N/A   Clear
3:15 AM 17.6 °F 10.7 °F 12.2 °F 79% 29.99 in 10.0 mi NNW 4.6 mph - N/A   Clear
3:35 AM 17.6 °F 12.3 °F 12.2 °F 79% 29.99 in 10.0 mi NW 3.5 mph - N/A   Clear
3:55 AM 14.0 °F 5.1 °F 12.2 °F 93% 29.99 in 10.0 mi WNW 5.8 mph - N/A   Clear
4:15 AM 10.4 °F 2.2 °F 8.6 °F 92% 29.99 in 10.0 mi West 4.6 mph - N/A   Clear
4:35 AM 10.4 °F -0.4 °F 8.6 °F 92% 29.99 in 10.0 mi West 6.9 mph - N/A   Clear
4:55 AM 12.2 °F 1.7 °F 10.4 °F 92% 30.00 in 10.0 mi WNW 6.9 mph - N/A   Clear
5:15 AM 10.4 °F 0.8 °F 8.6 °F 92% 29.99 in 10.0 mi West 5.8 mph - N/A   Clear
5:35 AM 10.4 °F -0.4 °F 8.6 °F 92% 29.99 in 10.0 mi West 6.9 mph - N/A   Clear
5:55 AM 10.4 °F 0.8 °F 8.6 °F 92% 29.99 in 10.0 mi West 5.8 mph - N/A   Clear
6:15 AM 10.4 °F -0.4 °F 8.6 °F 92% 30.00 in 10.0 mi WSW 6.9 mph - N/A   Clear
6:35 AM 10.4 °F 0.8 °F 8.6 °F 92% 30.01 in 10.0 mi WSW 5.8 mph - N/A   Clear
6:55 AM 8.6 °F -2.6 °F 6.8 °F 92% 30.00 in 10.0 mi WSW 6.9 mph - N/A   Clear
7:15 AM 8.6 °F -2.6 °F 6.8 °F 92% 30.00 in 10.0 mi SW 6.9 mph - N/A   Clear
7:35 AM 8.6 °F -2.6 °F 6.8 °F 92% 30.01 in 10.0 mi WSW 6.9 mph - N/A   Clear
7:55 AM 10.4 °F -1.5 °F 8.6 °F 92% 30.03 in 10.0 mi SW 8.1 mph - N/A   Clear
8:15 AM 12.2 °F 0.7 °F 10.4 °F 92% 30.04 in 10.0 mi SW 8.1 mph - N/A   Clear
8:35 AM 14.0 °F 3.9 °F 12.2 °F 93% 30.06 in 10.0 mi SW 6.9 mph - N/A   Clear
8:55 AM 17.6 °F 9.3 °F 14.0 °F 86% 30.06 in 10.0 mi SW 5.8 mph - N/A   Clear
9:15 AM 17.6 °F 9.3 °F 14.0 °F 86% 30.07 in 10.0 mi WSW 5.8 mph - N/A   Clear
9:35 AM 19.4 °F 9.5 °F 14.0 °F 80% 30.07 in 10.0 mi WSW 8.1 mph - N/A   Clear
9:55 AM 19.4 °F 11.5 °F 15.8 °F 86% 30.07 in 10.0 mi West 5.8 mph - N/A   Clear
10:15 AM 21.2 °F 16.4 °F 17.6 °F 86% 30.07 in 10.0 mi West 3.5 mph - N/A   Clear
10:35 AM 23.0 °F 17.0 °F 17.6 °F 80% 30.07 in 10.0 mi West 4.6 mph - N/A   Clear
11:15 AM 26.6 °F - 19.4 °F 74% 30.07 in 10.0 mi Calm Calm - N/A   Clear
11:35 AM 28.4 °F - 19.4 °F 69% 30.08 in 10.0 mi Calm Calm - N/A   Clear
11:55 AM 28.4 °F - 19.4 °F 69% 30.08 in 10.0 mi Calm Calm - N/A   Scattered Clouds
12:15 PM 30.2 °F - 19.4 °F 64% 30.07 in 10.0 mi Calm Calm - N/A   Mostly Cloudy
12:35 PM 30.2 °F - 21.2 °F 69% 30.07 in 10.0 mi Calm Calm - N/A   Scattered Clouds
12:55 PM 30.2 °F - 21.2 °F 69% 30.06 in 10.0 mi Calm Calm - N/A   Scattered Clouds
1:15 PM 32.0 °F - 21.2 °F 64% 30.05 in 10.0 mi Calm Calm - N/A   Clear
1:35 PM 32.0 °F - 21.2 °F 64% 30.05 in 10.0 mi Calm Calm - N/A   Clear
1:55 PM 32.0 °F - 21.2 °F 64% 30.04 in 10.0 mi Calm Calm - N/A   Mostly Cloudy
2:15 PM 32.0 °F - 21.2 °F 64% 30.03 in 10.0 mi Calm Calm - N/A   Overcast
2:35 PM 32.0 °F - 21.2 °F 64% 30.03 in 10.0 mi Calm Calm - N/A   Scattered Clouds
3:15 PM 32.0 °F 27.5 °F 23.0 °F 69% 30.01 in 10.0 mi South 4.6 mph - N/A   Clear
3:35 PM 32.0 °F 27.5 °F 23.0 °F 69% 30.01 in 10.0 mi SSW 4.6 mph - N/A   Clear
3:55 PM 33.8 °F - 23.0 °F 65% 30.01 in 10.0 mi Calm Calm - N/A   Scattered Clouds
4:15 PM 32.0 °F - 23.0 °F 69% 30.01 in 10.0 mi Calm Calm - N/A   Clear
4:35 PM 33.8 °F - 23.0 °F 65% 30.01 in 10.0 mi Calm Calm - N/A   Clear
4:55 PM 33.8 °F - 23.0 °F 65% 30.01 in 10.0 mi Calm Calm - N/A   Clear
5:15 PM 33.8 °F 29.6 °F 23.0 °F 65% 30.01 in 10.0 mi WSW 4.6 mph - N/A   Clear
5:35 PM 33.8 °F - 23.0 °F 65% 30.01 in 10.0 mi Calm Calm - N/A   Clear
5:55 PM 32.0 °F - 23.0 °F 69% 30.01 in 10.0 mi Calm Calm - N/A   Clear
6:15 PM 32.0 °F - 23.0 °F 69% 30.01 in 10.0 mi Calm Calm - N/A   Clear
6:35 PM 32.0 °F - 24.8 °F 75% 30.03 in 10.0 mi Calm Calm - N/A   Mostly Cloudy
6:55 PM 32.0 °F - 23.0 °F 69% 30.02 in 10.0 mi Calm Calm - N/A   Scattered Clouds
7:15 PM 30.2 °F - 24.8 °F 80% 30.03 in 10.0 mi Calm Calm - N/A   Clear
7:35 PM 28.4 °F 23.3 °F 23.0 °F 80% 30.03 in 10.0 mi NNE 4.6 mph - N/A   Clear
7:55 PM 26.6 °F 22.6 °F 23.0 °F 86% 30.03 in 10.0 mi NNE 3.5 mph - N/A   Clear
8:15 PM 26.6 °F 21.2 °F 23.0 °F 86% 30.03 in 10.0 mi NE 4.6 mph - N/A   Mostly Cloudy
8:35 PM 26.6 °F 21.2 °F 23.0 °F 86% 30.03 in 10.0 mi ENE 4.6 mph - N/A   Mostly Cloudy
8:55 PM 26.6 °F 22.6 °F 23.0 °F 86% 30.03 in 10.0 mi ENE 3.5 mph - N/A   Mostly Cloudy
9:15 PM 26.6 °F 22.6 °F 23.0 °F 86% 30.03 in 10.0 mi East 3.5 mph - N/A   Scattered Clouds
9:35 PM 26.6 °F - 23.0 °F 86% 30.03 in 10.0 mi Calm Calm - N/A   Clear
9:55 PM 23.0 °F - 21.2 °F 93% 30.04 in 10.0 mi Calm Calm - N/A   Clear
10:15 PM 23.0 °F 18.4 °F 21.2 °F 93% 30.04 in 10.0 mi WSW 3.5 mph - N/A   Scattered Clouds
10:35 PM 24.8 °F - 23.0 °F 93% 30.04 in 10.0 mi Calm Calm - N/A   Mostly Cloudy
10:55 PM 26.6 °F 21.2 °F 23.0 °F 86% 30.04 in 10.0 mi SW 4.6 mph - N/A   Overcast
11:15 PM 26.6 °F - 23.0 °F 86% 30.04 in 10.0 mi Calm Calm - N/A   Scattered Clouds
11:35 PM 26.6 °F - 23.0 °F 86% 30.03 in 10.0 mi Calm Calm - N/A   Mostly Cloudy
11:55 PM 24.8 °F - 23.0 °F 93% 30.03 in 10.0 mi Calm Calm - N/A   Mostly Cloudy